Home > Time Zones > World Clock > Weather > U.S.A. > Mesa > Past weeks

Flag for U.S.A. Weather past 2 weeks in Mesa, Arizona, U.S.A.

Now
81 °F

Partly cloudy.


Feels Like: 82 °F
Forecast: 82 / 103 °F
Wind: 5 mph from Southeast

Location: Williams Gateway Airport

Current Time: Jul 30, 2015 at 5:37:10 AM

Latest Report: Jul 30, 2015 at 4:50 AM


Visibility: 20 mi

Pressure: 30.01 "Hg

Humidity: 54%

Dew point: 63 °F

Location of MesaLocation

Historic Weather in Mesa — Graph

°F

Mesa temperature yesterday

Maximum temperature yesterday: 97 °F (at 1:47 PM)
Minimum temperature yesterday: 81 °F (at 2:55 AM)
Average temperature yesterday: 87 °F

Past Weeks' High & Low Weather Summary

 TemperatureHumidityPressure
High106 °F (Jul 25, 3:47 PM)89% (Jul 19, 12:35 AM)30.10 "Hg (Jul 19, 12:35 AM)
Low73 °F (Jul 19, 12:15 AM)8% (Jul 25, 5:47 PM)29.74 "Hg (Jul 21, 6:47 PM)
Average87 °F38%29.92 "Hg
* Reported Jul 15 4:15 AM — Jul 30 4:15 AM, Mesa, Weather by CustomWeather, © 2015

Note: Actual official high and low records may vary slightly from our data, if they occured in-between our weather recording intervals... More about our weather records

Advertising

Mesa weather history for previous 24 hours

 ConditionsComfort  
Time TempWeatherWind HumidityBarometerVisibility
4:15 AM
Thu, Jul 30
81 °FClear.6 mph54%30.00 "Hg10 mi
3:55 AM81 °FClear.5 mph54%30.00 "Hg10 mi
3:35 AM82 °FClear.5 mph48%30.00 "Hg10 mi
3:15 AM82 °FClear.3 mph48%30.00 "Hg10 mi
2:55 AM82 °FClear.No wind45%30.00 "Hg10 mi
2:35 AM82 °FClear.3 mph45%30.00 "Hg10 mi
2:15 AM82 °FClear.3 mph48%30.00 "Hg10 mi
1:55 AM82 °FClear.5 mph48%30.00 "Hg10 mi
1:35 AM82 °FClear.6 mph48%30.00 "Hg10 mi
1:15 AM82 °FClear.3 mph48%30.01 "Hg10 mi
12:55 AM82 °FClear.No wind48%30.01 "Hg10 mi
12:35 AM82 °FClear.3 mph48%30.01 "Hg10 mi
12:15 AM82 °FClear.No wind48%30.02 "Hg10 mi
11:55 PM
Wed, Jul 29
84 °FPassing clouds.No wind48%30.02 "Hg20 mi
10:58 PM84 °FPassing clouds.9 mph48%30.01 "Hg20 mi
9:53 PM86 °FPassing clouds.5 mph46%30.02 "Hg20 mi
8:47 PM88 °FPassing clouds.15 mph40%29.99 "Hg20 mi
7:47 PM88 °FPassing clouds.17 mph43%30.00 "Hg10 mi
7:04 PM93 °FPartly sunny.21 mph34%29.97 "Hg1 mi
6:49 PM97 °FPartly sunny.8 mph28%29.95 "Hg10 mi
5:47 PM97 °FScattered clouds.10 mph30%29.93 "Hg45 mi
3:49 PM97 °FScattered clouds.12 mph32%29.93 "Hg45 mi
2:47 PM97 °FScattered clouds.15 mph32%29.95 "Hg45 mi
1:47 PM97 °FBroken clouds.10 mph32%29.99 "Hg35 mi
12:47 PM93 °FBroken clouds.9 mph36%30.01 "Hg35 mi
11:47 AM91 °FPartly sunny.12 mph36%30.02 "Hg45 mi
10:47 AM91 °FBroken clouds.9 mph36%30.02 "Hg45 mi
9:47 AM90 °FPartly sunny.7 mph38%30.02 "Hg35 mi
8:55 AM84 °FBroken clouds.2 mph48%30.00 "Hg35 mi
6:47 AM84 °FBroken clouds.3 mph48%29.99 "Hg35 mi
5:50 AM82 °FPartly sunny.No wind51%29.97 "Hg45 mi
Weather by CustomWeather, © 2015

See weather overviewHow to use our weather pages